Time,TemperatureF,DewpointF,PressureIn,WindDirection,WindDirectionDegrees,WindSpeedMPH,WindSpeedGustMPH,Humidity,HourlyPrecipIn,Conditions,Clouds,dailyrainin,SolarRadiationWatts/m^2,SoftwareType,DateUTC
2013-02-07 00:00:00,40.8,34.5,29.79,SE,145,0.0,0.0,78,0.00,,,0.00,0,Wunderground v.1.15,2013-02-07 06:00:00,
2013-02-07 00:05:00,40.6,34.6,29.79,SE,146,0.0,0.0,79,0.00,,,0.00,0,Wunderground v.1.15,2013-02-07 06:05:00,
2013-02-07 00:10:00,40.5,34.8,29.79,SE,145,0.0,0.0,80,0.00,,,0.00,0,Wunderground v.1.15,2013-02-07 06:10:00,
2013-02-07 00:20:00,40.4,34.7,29.79,SE,146,0.0,0.0,80,0.00,,,0.00,0,Wunderground v.1.15,2013-02-07 06:20:00,
2013-02-07 00:30:00,40.5,35.1,29.79,SE,146,0.0,0.0,81,0.00,,,0.00,0,Wunderground v.1.15,2013-02-07 06:30:00,
2013-02-07 00:35:00,40.6,35.2,29.79,SE,145,0.0,0.0,81,0.00,,,0.00,0,Wunderground v.1.15,2013-02-07 06:35:00,
2013-02-07 00:45:00,40.7,35.3,29.79,SE,145,0.0,0.0,81,0.00,,,0.00,0,Wunderground v.1.15,2013-02-07 06:45:00,
2013-02-07 00:55:00,40.4,35.0,29.79,SE,145,0.0,0.0,81,0.00,,,0.00,0,Wunderground v.1.15,2013-02-07 06:55:00,
2013-02-07 01:00:00,40.2,34.8,29.79,SE,146,0.0,0.0,81,0.00,,,0.00,0,Wunderground v.1.15,2013-02-07 07:00:00,
2013-02-07 01:10:00,39.7,34.3,29.79,SSE,148,0.0,0.0,81,0.00,,,0.00,0,Wunderground v.1.15,2013-02-07 07:10:00,
2013-02-07 01:15:00,39.5,34.5,29.79,SSE,148,0.0,0.0,82,0.00,,,0.00,0,Wunderground v.1.15,2013-02-07 07:15:00,
2013-02-07 01:20:00,39.6,34.6,29.79,SSE,148,0.0,0.0,82,0.00,,,0.00,0,Wunderground v.1.15,2013-02-07 07:20:00,
2013-02-07 01:25:00,39.6,34.6,29.79,SSE,148,0.0,0.0,82,0.00,,,0.00,0,Wunderground v.1.15,2013-02-07 07:25:00,
2013-02-07 01:35:00,39.7,35.0,29.79,SSE,148,0.0,0.0,83,0.00,,,0.00,0,Wunderground v.1.15,2013-02-07 07:35:00,
2013-02-07 01:40:00,39.7,35.0,29.79,SSE,148,0.0,0.0,83,0.00,,,0.00,0,Wunderground v.1.15,2013-02-07 07:40:00,
2013-02-07 01:50:00,39.6,34.9,29.79,SSE,148,0.0,0.0,83,0.00,,,0.00,0,Wunderground v.1.15,2013-02-07 07:50:00,
2013-02-07 02:00:00,39.6,34.9,29.79,SSE,148,0.0,0.0,83,0.00,,,0.00,0,Wunderground v.1.15,2013-02-07 08:00:00,
2013-02-07 02:10:00,39.5,34.8,29.79,SSE,150,0.0,0.0,83,0.00,,,0.00,0,Wunderground v.1.15,2013-02-07 08:10:00,
2013-02-07 02:20:00,39.6,34.9,29.80,SSE,156,0.0,0.0,83,0.00,,,0.00,0,Wunderground v.1.15,2013-02-07 08:20:00,
2013-02-07 02:30:00,39.6,34.9,29.81,NW,314,0.0,2.0,83,0.00,,,0.00,0,Wunderground v.1.15,2013-02-07 08:30:00,
2013-02-07 02:40:00,39.1,34.4,29.81,NNW,339,2.0,4.0,83,0.00,,,0.00,0,Wunderground v.1.15,2013-02-07 08:40:00,
2013-02-07 02:45:00,38.9,34.2,29.81,NNW,328,2.0,4.0,83,0.00,,,0.00,0,Wunderground v.1.15,2013-02-07 08:45:00,
2013-02-07 02:55:00,38.7,34.0,29.81,North,355,1.0,2.0,83,0.00,,,0.00,0,Wunderground v.1.15,2013-02-07 08:55:00,
2013-02-07 03:00:00,38.6,34.2,29.81,North,355,0.0,0.0,84,0.00,,,0.00,0,Wunderground v.1.15,2013-02-07 09:00:00,
2013-02-07 03:10:00,38.5,34.1,29.81,North,355,0.0,0.0,84,0.00,,,0.00,0,Wunderground v.1.15,2013-02-07 09:10:00,
2013-02-07 03:15:00,38.5,34.1,29.80,North,355,0.0,0.0,84,0.00,,,0.00,0,Wunderground v.1.15,2013-02-07 09:15:00,
2013-02-07 03:25:00,38.2,33.8,29.80,North,355,0.0,1.0,84,0.00,,,0.00,0,Wunderground v.1.15,2013-02-07 09:25:00,
2013-02-07 03:35:00,38.0,33.6,29.80,NNW,330,1.0,3.0,84,0.00,,,0.00,0,Wunderground v.1.15,2013-02-07 09:35:00,
2013-02-07 03:40:00,38.0,33.6,29.80,NNW,336,2.0,2.0,84,0.00,,,0.00,0,Wunderground v.1.15,2013-02-07 09:40:00,
2013-02-07 03:45:00,38.0,33.9,29.81,NW,315,2.0,2.0,85,0.00,,,0.00,0,Wunderground v.1.15,2013-02-07 09:45:00,
2013-02-07 03:55:00,38.0,33.9,29.81,NNW,346,2.0,2.0,85,0.00,,,0.00,0,Wunderground v.1.15,2013-02-07 09:55:00,
2013-02-07 04:05:00,37.8,33.7,29.80,NW,322,2.0,2.0,85,0.00,,,0.00,0,Wunderground v.1.15,2013-02-07 10:05:00,
2013-02-07 04:15:00,37.6,33.5,29.80,North,5,3.0,4.0,85,0.00,,,0.00,0,Wunderground v.1.15,2013-02-07 10:15:00,
2013-02-07 04:20:00,37.5,33.4,29.80,NNW,345,3.0,8.0,85,0.00,,,0.00,0,Wunderground v.1.15,2013-02-07 10:20:00,
2013-02-07 04:30:00,37.3,33.2,29.81,NNW,327,3.0,3.0,85,0.00,,,0.00,0,Wunderground v.1.15,2013-02-07 10:30:00,
2013-02-07 04:40:00,37.3,33.2,29.81,NW,325,3.0,4.0,85,0.00,,,0.00,0,Wunderground v.1.15,2013-02-07 10:40:00,
2013-02-07 04:50:00,37.6,33.5,29.82,NNW,333,4.0,4.0,85,0.00,,,0.00,0,Wunderground v.1.15,2013-02-07 10:50:00,
2013-02-07 04:55:00,37.7,33.3,29.82,North,355,4.0,4.0,84,0.00,,,0.00,0,Wunderground v.1.15,2013-02-07 10:55:00,
2013-02-07 05:05:00,37.9,33.5,29.82,NW,324,4.0,4.0,84,0.00,,,0.00,0,Wunderground v.1.15,2013-02-07 11:05:00,
2013-02-07 05:15:00,37.9,33.2,29.83,NNW,346,4.0,4.0,83,0.00,,,0.00,0,Wunderground v.1.15,2013-02-07 11:15:00,
2013-02-07 05:25:00,37.9,32.9,29.83,North,350,3.0,4.0,82,0.00,,,0.00,0,Wunderground v.1.15,2013-02-07 11:25:00,
2013-02-07 05:35:00,37.9,32.9,29.84,North,360,4.0,7.0,82,0.00,,,0.00,0,Wunderground v.1.15,2013-02-07 11:35:00,
2013-02-07 05:40:00,37.8,32.8,29.84,NNE,17,5.0,11.0,82,0.00,,,0.00,0,Wunderground v.1.15,2013-02-07 11:40:00,
2013-02-07 05:50:00,37.4,32.4,29.84,NNW,344,5.0,5.0,82,0.00,,,0.00,0,Wunderground v.1.15,2013-02-07 11:50:00,
2013-02-07 05:55:00,37.2,32.2,29.84,NW,326,4.0,10.0,82,0.00,,,0.00,0,Wunderground v.1.15,2013-02-07 11:55:00,
2013-02-07 06:05:00,36.9,31.9,29.84,NNW,343,4.0,10.0,82,0.00,,,0.00,0,Wunderground v.1.15,2013-02-07 12:05:00,
2013-02-07 06:15:00,36.6,31.9,29.84,North,350,4.0,10.0,83,0.00,,,0.00,0,Wunderground v.1.15,2013-02-07 12:15:00,
2013-02-07 06:20:00,36.5,31.8,29.84,NNE,12,4.0,10.0,83,0.00,,,0.00,0,Wunderground v.1.15,2013-02-07 12:20:00,
2013-02-07 06:25:00,36.4,31.7,29.84,NNW,340,5.0,10.0,83,0.00,,,0.00,0,Wunderground v.1.15,2013-02-07 12:25:00,
2013-02-07 06:35:00,36.1,31.7,29.85,North,355,4.0,10.0,84,0.00,,,0.00,0,Wunderground v.1.15,2013-02-07 12:35:00,
2013-02-07 06:45:00,35.9,31.5,29.85,NNW,342,4.0,10.0,84,0.00,,,0.00,0,Wunderground v.1.15,2013-02-07 12:45:00,
2013-02-07 06:55:00,35.5,31.4,29.85,North,5,5.0,6.0,85,0.00,,,0.00,0,Wunderground v.1.15,2013-02-07 12:55:00,
2013-02-07 07:00:00,35.4,31.3,29.86,NW,317,5.0,10.0,85,0.00,,,0.00,0,Wunderground v.1.15,2013-02-07 13:00:00,
2013-02-07 07:10:00,35.2,31.1,29.86,NNW,347,6.0,10.0,85,0.00,,,0.00,0,Wunderground v.1.15,2013-02-07 13:10:00,
2013-02-07 07:20:00,35.0,31.2,29.87,North,5,5.0,10.0,86,0.00,,,0.00,0,Wunderground v.1.15,2013-02-07 13:20:00,
2013-02-07 07:25:00,34.8,31.0,29.87,North,355,5.0,10.0,86,0.00,,,0.00,0,Wunderground v.1.15,2013-02-07 13:25:00,
2013-02-07 07:30:00,34.7,30.9,29.88,NNW,345,6.0,6.0,86,0.00,,,0.00,0,Wunderground v.1.15,2013-02-07 13:30:00,
2013-02-07 07:40:00,34.4,30.6,29.88,North,351,6.0,10.0,86,0.00,,,0.00,5,Wunderground v.1.15,2013-02-07 13:40:00,
2013-02-07 07:50:00,34.2,30.7,29.89,North,355,5.0,10.0,87,0.00,,,0.00,11,Wunderground v.1.15,2013-02-07 13:50:00,
2013-02-07 08:00:00,34.0,30.5,29.90,NNW,344,5.0,10.0,87,0.00,,,0.00,14,Wunderground v.1.15,2013-02-07 14:00:00,
2013-02-07 08:10:00,33.8,30.3,29.90,NNW,340,4.0,10.0,87,0.00,,,0.00,23,Wunderground v.1.15,2013-02-07 14:10:00,
2013-02-07 08:20:00,33.5,30.3,29.91,NNW,346,5.0,10.0,88,0.00,,,0.00,26,Wunderground v.1.15,2013-02-07 14:20:00,
2013-02-07 08:30:00,33.4,30.2,29.93,NNW,339,5.0,5.0,88,0.00,,,0.00,28,Wunderground v.1.15,2013-02-07 14:30:00,
2013-02-07 08:35:00,33.4,30.2,29.93,NNW,333,5.0,10.0,88,0.00,,,0.00,30,Wunderground v.1.15,2013-02-07 14:35:00,
2013-02-07 08:45:00,33.4,30.5,29.94,NNW,340,4.0,10.0,89,0.00,,,0.00,33,Wunderground v.1.15,2013-02-07 14:45:00,
2013-02-07 08:55:00,33.4,30.5,29.94,North,355,5.0,11.0,89,0.00,,,0.00,42,Wunderground v.1.15,2013-02-07 14:55:00,
2013-02-07 09:05:00,33.3,30.4,29.95,NNW,345,6.0,6.0,89,0.00,,,0.00,56,Wunderground v.1.15,2013-02-07 15:05:00,
2013-02-07 09:15:00,33.3,30.4,29.94,North,355,5.0,10.0,89,0.00,,,0.00,79,Wunderground v.1.15,2013-02-07 15:15:00,
2013-02-07 09:20:00,33.3,30.4,29.94,NNW,338,5.0,10.0,89,0.00,,,0.00,81,Wunderground v.1.15,2013-02-07 15:20:00,
2013-02-07 09:25:00,33.2,30.3,29.94,NNW,333,6.0,10.0,89,0.00,,,0.00,77,Wunderground v.1.15,2013-02-07 15:25:00,
2013-02-07 09:35:00,33.1,30.2,29.94,NW,319,7.0,10.0,89,0.00,,,0.00,86,Wunderground v.1.15,2013-02-07 15:35:00,
2013-02-07 09:40:00,33.0,30.1,29.94,NNW,344,7.0,7.0,89,0.00,,,0.00,67,Wunderground v.1.15,2013-02-07 15:40:00,
2013-02-07 09:50:00,33.0,29.8,29.95,NW,326,6.0,6.0,88,0.00,,,0.00,53,Wunderground v.1.15,2013-02-07 15:50:00,
2013-02-07 10:00:00,33.0,29.8,29.96,NNW,333,4.0,4.0,88,0.00,,,0.00,102,Wunderground v.1.15,2013-02-07 16:00:00,
2013-02-07 10:10:00,33.0,29.8,29.96,NNW,344,7.0,7.0,88,0.00,,,0.00,104,Wunderground v.1.15,2013-02-07 16:10:00,
2013-02-07 10:20:00,33.1,29.9,29.96,NNW,337,4.0,10.0,88,0.00,,,0.00,121,Wunderground v.1.15,2013-02-07 16:20:00,
2013-02-07 10:30:00,33.3,29.8,29.98,NNE,12,9.0,9.0,87,0.00,,,0.00,186,Wunderground v.1.15,2013-02-07 16:30:00,
2013-02-07 10:40:00,34.6,30.8,29.98,North,360,3.0,10.0,86,0.00,,,0.00,178,Wunderground v.1.15,2013-02-07 16:40:00,
2013-02-07 10:45:00,34.4,30.4,29.98,North,360,4.0,10.0,85,0.00,,,0.00,246,Wunderground v.1.15,2013-02-07 16:45:00,
2013-02-07 10:55:00,34.3,30.0,29.98,NW,322,6.0,10.0,84,0.00,,,0.00,221,Wunderground v.1.15,2013-02-07 16:55:00,
2013-02-07 11:00:00,34.5,30.2,29.98,NNW,346,5.0,21.0,84,0.00,,,0.00,241,Wunderground v.1.15,2013-02-07 17:00:00,
2013-02-07 11:10:00,34.6,30.0,29.98,North,355,7.0,7.0,83,0.00,,,0.00,229,Wunderground v.1.15,2013-02-07 17:10:00,
2013-02-07 11:20:00,35.0,30.1,29.99,NNW,328,5.0,11.0,82,0.00,,,0.00,206,Wunderground v.1.15,2013-02-07 17:20:00,
2013-02-07 11:30:00,34.4,29.2,30.00,North,355,8.0,16.0,81,0.00,,,0.00,248,Wunderground v.1.15,2013-02-07 17:30:00,
2013-02-07 11:35:00,34.2,29.0,30.00,North,5,9.0,16.0,81,0.00,,,0.00,132,Wunderground v.1.15,2013-02-07 17:35:00,
2013-02-07 11:45:00,33.8,28.9,30.00,NNW,333,5.0,12.0,82,0.00,,,0.00,213,Wunderground v.1.15,2013-02-07 17:45:00,
2013-02-07 11:55:00,34.2,29.3,30.00,NNW,327,3.0,10.0,82,0.00,,,0.00,246,Wunderground v.1.15,2013-02-07 17:55:00,
2013-02-07 12:05:00,33.8,28.6,29.99,NNW,340,6.0,6.0,81,0.00,,,0.00,251,Wunderground v.1.15,2013-02-07 18:05:00,
2013-02-07 12:15:00,33.4,28.5,29.99,North,5,5.0,10.0,82,0.00,,,0.00,202,Wunderground v.1.15,2013-02-07 18:15:00,
2013-02-07 12:25:00,33.1,28.5,29.99,NNW,346,6.0,6.0,83,0.00,,,0.00,181,Wunderground v.1.15,2013-02-07 18:25:00,
2013-02-07 12:35:00,33.0,28.4,29.99,North,5,5.0,10.0,83,0.00,,,0.00,176,Wunderground v.1.15,2013-02-07 18:35:00,
2013-02-07 12:45:00,33.1,28.5,29.99,NNE,27,4.0,10.0,83,0.00,,,0.00,163,Wunderground v.1.15,2013-02-07 18:45:00,
2013-02-07 12:50:00,33.0,28.4,29.99,NW,326,5.0,10.0,83,0.00,,,0.00,163,Wunderground v.1.15,2013-02-07 18:50:00,
2013-02-07 13:00:00,32.8,28.5,29.99,NNW,331,4.0,4.0,84,0.00,,,0.00,144,Wunderground v.1.15,2013-02-07 19:00:00,
2013-02-07 13:05:00,32.8,28.5,29.99,NNW,340,4.0,10.0,84,0.00,,,0.00,141,Wunderground v.1.15,2013-02-07 19:05:00,
2013-02-07 13:15:00,32.8,28.5,30.00,NNW,329,4.0,10.0,84,0.00,,,0.00,139,Wunderground v.1.15,2013-02-07 19:15:00,
2013-02-07 13:25:00,32.6,28.3,30.00,North,355,5.0,10.0,84,0.00,,,0.00,139,Wunderground v.1.15,2013-02-07 19:25:00,
2013-02-07 13:35:00,32.6,28.3,30.00,North,355,7.0,18.0,84,0.00,,,0.00,123,Wunderground v.1.15,2013-02-07 19:35:00,
2013-02-07 13:40:00,32.6,28.3,30.00,NNW,341,5.0,5.0,84,0.00,,,0.00,118,Wunderground v.1.15,2013-02-07 19:40:00,
2013-02-07 13:50:00,32.5,27.9,30.00,NNW,338,5.0,5.0,83,0.00,,,0.00,132,Wunderground v.1.15,2013-02-07 19:50:00,
2013-02-07 14:00:00,32.3,27.7,30.00,NNW,336,5.0,5.0,83,0.00,,,0.00,146,Wunderground v.1.15,2013-02-07 20:00:00,
2013-02-07 14:05:00,32.5,27.9,30.00,NW,325,4.0,10.0,83,0.00,,,0.00,139,Wunderground v.1.15,2013-02-07 20:05:00,
2013-02-07 14:10:00,32.5,27.9,30.00,NW,314,4.0,10.0,83,0.00,,,0.00,127,Wunderground v.1.15,2013-02-07 20:10:00,
2013-02-07 14:20:00,32.4,27.8,30.00,NW,317,4.0,10.0,83,0.00,,,0.00,144,Wunderground v.1.15,2013-02-07 20:20:00,
2013-02-07 14:25:00,32.3,27.4,30.00,WNW,302,6.0,10.0,82,0.00,,,0.00,144,Wunderground v.1.15,2013-02-07 20:25:00,
2013-02-07 14:30:00,32.3,27.7,30.00,NNW,340,7.0,7.0,83,0.00,,,0.00,158,Wunderground v.1.15,2013-02-07 20:30:00,
2013-02-07 14:40:00,32.5,27.6,30.00,NNW,348,5.0,12.0,82,0.00,,,0.00,114,Wunderground v.1.15,2013-02-07 20:40:00,
2013-02-07 14:45:00,32.4,27.5,30.00,North,11,6.0,12.0,82,0.00,,,0.00,121,Wunderground v.1.15,2013-02-07 20:45:00,
2013-02-07 14:55:00,32.3,27.4,30.00,NNW,344,7.0,10.0,82,0.00,,,0.00,118,Wunderground v.1.15,2013-02-07 20:55:00,
2013-02-07 15:05:00,32.5,27.6,30.01,NNE,20,6.0,12.0,82,0.00,,,0.00,123,Wunderground v.1.15,2013-02-07 21:05:00,
2013-02-07 15:10:00,32.6,27.7,30.01,North,355,5.0,10.0,82,0.00,,,0.00,137,Wunderground v.1.15,2013-02-07 21:10:00,
2013-02-07 15:20:00,32.9,27.7,30.01,NNW,344,6.0,6.0,81,0.00,,,0.00,149,Wunderground v.1.15,2013-02-07 21:20:00,
2013-02-07 15:25:00,32.9,27.4,30.01,NNE,12,6.0,7.0,80,0.00,,,0.00,135,Wunderground v.1.15,2013-02-07 21:25:00,
2013-02-07 15:35:00,32.8,27.3,30.01,NW,325,6.0,10.0,80,0.00,,,0.00,127,Wunderground v.1.15,2013-02-07 21:35:00,
2013-02-07 15:45:00,32.9,27.4,30.02,NNE,15,6.0,10.0,80,0.00,,,0.00,116,Wunderground v.1.15,2013-02-07 21:45:00,
2013-02-07 15:55:00,33.0,27.5,30.02,NNW,341,5.0,10.0,80,0.00,,,0.00,125,Wunderground v.1.15,2013-02-07 21:55:00,
2013-02-07 16:00:00,33.0,27.5,30.02,North,355,5.0,10.0,80,0.00,,,0.00,111,Wunderground v.1.15,2013-02-07 22:00:00,
2013-02-07 16:10:00,32.6,26.8,30.02,North,355,8.0,13.0,79,0.00,,,0.00,104,Wunderground v.1.15,2013-02-07 22:10:00,
2013-02-07 16:20:00,32.4,26.6,30.02,NNW,333,7.0,7.0,79,0.00,,,0.00,76,Wunderground v.1.15,2013-02-07 22:20:00,
2013-02-07 16:30:00,32.3,26.5,30.03,NNW,346,7.0,10.0,79,0.00,,,0.00,72,Wunderground v.1.15,2013-02-07 22:30:00,
2013-02-07 16:35:00,32.2,26.7,30.03,NNW,344,7.0,10.0,80,0.00,,,0.00,67,Wunderground v.1.15,2013-02-07 22:35:00,
2013-02-07 16:45:00,32.0,26.5,30.04,North,355,5.0,10.0,80,0.00,,,0.00,46,Wunderground v.1.15,2013-02-07 22:45:00,
2013-02-07 16:55:00,31.9,26.4,30.04,NNW,342,4.0,12.0,80,0.00,,,0.00,42,Wunderground v.1.15,2013-02-07 22:55:00,
2013-02-07 17:05:00,31.5,26.0,30.05,NNW,341,8.0,10.0,80,0.00,,,0.00,33,Wunderground v.1.15,2013-02-07 23:05:00,
2013-02-07 17:15:00,31.5,26.0,30.05,NNE,16,2.0,10.0,80,0.00,,,0.00,25,Wunderground v.1.15,2013-02-07 23:15:00,
2013-02-07 17:25:00,31.4,25.9,30.05,North,355,4.0,10.0,80,0.00,,,0.00,18,Wunderground v.1.15,2013-02-07 23:25:00,
2013-02-07 17:35:00,31.3,25.8,30.06,North,360,6.0,10.0,80,0.00,,,0.00,11,Wunderground v.1.15,2013-02-07 23:35:00,
2013-02-07 17:45:00,31.1,25.7,30.07,NNW,339,6.0,10.0,80,0.00,,,0.00,5,Wunderground v.1.15,2013-02-07 23:45:00,
2013-02-07 17:55:00,31.0,25.6,30.07,NNW,333,6.0,11.0,80,0.00,,,0.00,0,Wunderground v.1.15,2013-02-07 23:55:00,
2013-02-07 18:05:00,30.8,25.4,30.08,North,5,6.0,10.0,80,0.00,,,0.00,0,Wunderground v.1.15,2013-02-08 00:05:00,
2013-02-07 18:15:00,30.8,25.4,30.08,NNE,16,5.0,10.0,80,0.00,,,0.00,0,Wunderground v.1.15,2013-02-08 00:15:00,
2013-02-07 18:25:00,30.9,25.5,30.08,North,360,5.0,10.0,80,0.00,,,0.00,0,Wunderground v.1.15,2013-02-08 00:25:00,
2013-02-07 18:30:00,30.9,25.5,30.09,North,360,5.0,10.0,80,0.00,,,0.00,0,Wunderground v.1.15,2013-02-08 00:30:00,
2013-02-07 18:40:00,30.8,25.1,30.09,North,5,6.0,6.0,79,0.00,,,0.00,0,Wunderground v.1.15,2013-02-08 00:40:00,
2013-02-07 18:50:00,30.8,25.1,30.10,NNE,26,5.0,5.0,79,0.00,,,0.00,0,Wunderground v.1.15,2013-02-08 00:50:00,
2013-02-07 18:55:00,30.8,25.1,30.10,North,5,4.0,10.0,79,0.00,,,0.00,0,Wunderground v.1.15,2013-02-08 00:55:00,
2013-02-07 19:05:00,30.7,25.0,30.10,North,5,5.0,10.0,79,0.00,,,0.00,0,Wunderground v.1.15,2013-02-08 01:05:00,
2013-02-07 19:15:00,30.7,25.3,30.11,NNE,24,3.0,10.0,80,0.00,,,0.00,0,Wunderground v.1.15,2013-02-08 01:15:00,
2013-02-07 19:20:00,30.7,25.3,30.11,NNE,22,5.0,10.0,80,0.00,,,0.00,0,Wunderground v.1.15,2013-02-08 01:20:00,
2013-02-07 19:30:00,30.6,25.2,30.12,North,9,6.0,6.0,80,0.00,,,0.00,0,Wunderground v.1.15,2013-02-08 01:30:00,
2013-02-07 19:40:00,30.6,25.2,30.12,NNE,19,5.0,5.0,80,0.00,,,0.00,0,Wunderground v.1.15,2013-02-08 01:40:00,
2013-02-07 19:50:00,30.6,25.2,30.12,North,360,4.0,4.0,80,0.00,,,0.00,0,Wunderground v.1.15,2013-02-08 01:50:00,
2013-02-07 19:55:00,30.6,25.5,30.12,North,355,4.0,10.0,81,0.00,,,0.00,0,Wunderground v.1.15,2013-02-08 01:55:00,
2013-02-07 20:05:00,30.6,25.5,30.12,North,5,3.0,10.0,81,0.00,,,0.00,0,Wunderground v.1.15,2013-02-08 02:05:00,
2013-02-07 20:15:00,30.4,25.3,30.13,North,11,5.0,10.0,81,0.00,,,0.00,0,Wunderground v.1.15,2013-02-08 02:15:00,
2013-02-07 20:25:00,30.3,25.2,30.13,NNW,334,5.0,8.0,81,0.00,,,0.00,0,Wunderground v.1.15,2013-02-08 02:25:00,
2013-02-07 20:30:00,30.2,24.8,30.14,North,5,6.0,6.0,80,0.00,,,0.00,0,Wunderground v.1.15,2013-02-08 02:30:00,
2013-02-07 20:40:00,30.0,24.6,30.14,NNE,13,5.0,5.0,80,0.00,,,0.00,0,Wunderground v.1.15,2013-02-08 02:40:00,
2013-02-07 20:45:00,29.9,24.5,30.14,North,360,6.0,6.0,80,0.00,,,0.00,0,Wunderground v.1.15,2013-02-08 02:45:00,
2013-02-07 20:50:00,29.8,24.4,30.14,North,360,6.0,6.0,80,0.00,,,0.00,0,Wunderground v.1.15,2013-02-08 02:50:00,
2013-02-07 20:55:00,29.8,24.4,30.14,NNE,14,5.0,10.0,80,0.00,,,0.00,0,Wunderground v.1.15,2013-02-08 02:55:00,
2013-02-07 21:05:00,29.8,24.4,30.15,North,5,3.0,10.0,80,0.00,,,0.00,0,Wunderground v.1.15,2013-02-08 03:05:00,
2013-02-07 21:15:00,29.8,24.4,30.15,North,351,3.0,4.0,80,0.00,,,0.00,0,Wunderground v.1.15,2013-02-08 03:15:00,
2013-02-07 21:25:00,29.6,24.2,30.15,North,5,3.0,10.0,80,0.00,,,0.00,0,Wunderground v.1.15,2013-02-08 03:25:00,
2013-02-07 21:35:00,29.6,24.2,30.16,NE,36,5.0,10.0,80,0.00,,,0.00,0,Wunderground v.1.15,2013-02-08 03:35:00,
2013-02-07 21:45:00,29.6,24.2,30.16,North,360,4.0,10.0,80,0.00,,,0.00,0,Wunderground v.1.15,2013-02-08 03:45:00,
2013-02-07 21:50:00,29.7,24.3,30.16,North,355,2.0,2.0,80,0.00,,,0.00,0,Wunderground v.1.15,2013-02-08 03:50:00,
2013-02-07 22:00:00,29.7,24.3,30.16,NNW,347,2.0,10.0,80,0.00,,,0.00,0,Wunderground v.1.15,2013-02-08 04:00:00,
2013-02-07 22:05:00,29.7,24.3,30.16,NNE,14,3.0,10.0,80,0.00,,,0.00,0,Wunderground v.1.15,2013-02-08 04:05:00,
2013-02-07 22:15:00,29.6,24.2,30.16,North,5,4.0,5.0,80,0.00,,,0.00,0,Wunderground v.1.15,2013-02-08 04:15:00,
2013-02-07 22:20:00,29.6,24.2,30.16,North,5,4.0,4.0,80,0.00,,,0.00,0,Wunderground v.1.15,2013-02-08 04:20:00,
2013-02-07 22:30:00,29.6,24.2,30.17,NNE,13,1.0,1.0,80,0.00,,,0.00,0,Wunderground v.1.15,2013-02-08 04:30:00,
2013-02-07 22:35:00,29.6,24.2,30.17,North,351,1.0,10.0,80,0.00,,,0.00,0,Wunderground v.1.15,2013-02-08 04:35:00,
2013-02-07 22:40:00,29.5,24.1,30.17,NNE,19,2.0,2.0,80,0.00,,,0.00,0,Wunderground v.1.15,2013-02-08 04:40:00,
2013-02-07 22:50:00,29.4,23.7,30.17,NNE,19,3.0,3.0,79,0.00,,,0.00,0,Wunderground v.1.15,2013-02-08 04:50:00,
2013-02-07 23:00:00,29.4,23.7,30.16,NNW,338,5.0,10.0,79,0.00,,,0.00,0,Wunderground v.1.15,2013-02-08 05:00:00,
2013-02-07 23:05:00,29.4,23.7,30.16,North,355,4.0,10.0,79,0.00,,,0.00,0,Wunderground v.1.15,2013-02-08 05:05:00,
2013-02-07 23:10:00,29.4,23.7,30.16,North,360,2.0,10.0,79,0.00,,,0.00,0,Wunderground v.1.15,2013-02-08 05:10:00,
2013-02-07 23:15:00,29.4,23.7,30.17,North,360,2.0,10.0,79,0.00,,,0.00,0,Wunderground v.1.15,2013-02-08 05:15:00,
2013-02-07 23:25:00,29.5,23.8,30.17,NNW,342,1.0,10.0,79,0.00,,,0.00,0,Wunderground v.1.15,2013-02-08 05:25:00,
2013-02-07 23:30:00,29.5,23.5,30.17,NNW,345,1.0,1.0,78,0.00,,,0.00,0,Wunderground v.1.15,2013-02-08 05:30:00,
2013-02-07 23:40:00,29.6,23.9,30.17,NNW,345,0.0,10.0,79,0.00,,,0.00,0,Wunderground v.1.15,2013-02-08 05:40:00,
2013-02-07 23:50:00,29.5,23.8,30.17,NNW,345,0.0,10.0,79,0.00,,,0.00,0,Wunderground v.1.15,2013-02-08 05:50:00,
2013-02-07 23:55:00,29.5,23.8,30.17,NNW,345,0.0,10.0,79,0.00,,,0.00,0,Wunderground v.1.15,2013-02-08 05:55:00,